Location: Blackrock Ranger Station
(36.0936°N, 118.2611°W)
Time: 20:06:56
(UTC-08:00)

AO-85 - Visible Passes

Search period start: 18 February 2026 00:00
Search period end: 28 February 2026 00:00
Orbit: 507 x 688 km, 64.8° (Epoch: 18 February)

Date Brightness Start Highest point End Pass type
(mag) Time Alt. Az. Time Alt. Az. Time Alt. Az.
18 Feb ? 18:14:55 10° NNE 18:16:29 12° NE 18:17:43 11° ENE visible
18 Feb ? 19:52:21 10° NW 19:54:28 30° NW 19:54:28 30° NW visible
19 Feb ? 18:23:58 10° N 18:26:59 21° NE 18:28:54 15° E visible
19 Feb ? 20:03:02 10° NW 20:05:39 25° W 20:05:39 25° W visible
20 Feb ? 18:33:44 10° NNW 18:37:23 40° ENE 18:40:23 15° ESE visible
20 Feb ? 20:14:28 10° W 20:16:25 13° WSW 20:17:11 13° WSW visible
21 Feb ? 18:43:48 10° NNW 18:47:41 83° ENE 18:51:41 10° SSE visible
22 Feb ? 18:54:10 10° NW 18:57:53 45° WSW 19:01:44 10° S visible
23 Feb ? 19:04:57 10° WNW 19:08:02 22° WSW 19:11:11 10° SSW visible
24 Feb ? 19:16:51 10° W 19:18:05 11° WSW 19:19:19 10° SW visible
27 Feb ? 18:06:49 10° WNW 18:09:38 19° WSW 18:12:32 10° SSW visible
